Regional Weather Roundup
Issued by NWS

Home | Current Version | Previous Version | Text Only | Print | Product List | Glossary On
Versions: 1 2 3 4 5 6 7 8 9 10 11 12 13 14 15 16 17 18 19 20 21 22 23 24 25 26 27 28 29 30 31 32 33 34 35 36 37 38 39 40 41 42 43 44 45 46 47 48 49 50
000
ASUS43 KOAX 170510
RWRNE

WEATHER ROUNDUP FOR NEBRASKA
NATIONAL WEATHER SERVICE OMAHA NE
1200 AM CDT THU AUG 17 2017

NOTES: SATELLITE DATA IS BEING USED TO AUGMENT CLOUD COVER ABOVE
       12000 FEET.
       "FAIR" INDICATES FEW OR NO CLOUDS BELOW 12,000 FEET WITH NO
       SIGNIFICANT WEATHER AND/OR OBSTRUCTIONS TO VISIBILITY.


NEZ001>004-019>022-054>056-170600-
NEBRASKA PANHANDLE

CITY           SKY/WX    TMP DP  RH WIND       PRES   REMARKS
SCOTTSBLUFF    CLEAR     61  51  70 SE3       30.08S
ALLIANCE       CLEAR     54  51  90 CALM      30.06S
CHADRON        CLEAR     57  52  83 SW6       30.02S
GORDON         FAIR      53  51  91 CALM      30.04S
KIMBALL        CLEAR     55  50  85 S6        30.15S
SIDNEY         CLEAR     52  49  89 SW10      30.12S
$$

NEZ057>060-069>072-079>082-170600-
SOUTHWEST NEBRASKA

CITY           SKY/WX    TMP DP  RH WIND       PRES   REMARKS
NORTH PLATTE   CLEAR     56  54  93 NW3       30.02R
IMPERIAL       CLEAR     60  54  80 W3        30.05S
LEXINGTON      CLEAR     59  57  92 NW3       29.99R
MCCOOK         CLEAR     60  59  96 W7        30.02R
OGALLALA       CLEAR     56  55  94 SW3       30.05S
$$

NEZ005>010-023>029-035>040-094-170600-
NORTH CENTRAL NEBRASKA

CITY           SKY/WX    TMP DP  RH WIND       PRES   REMARKS
VALENTINE      CLEAR     54  48  80 W6        29.98S
AINSWORTH      CLEAR     56  55  94 W6        29.98S
BROKEN BOW     CLEAR     63  56  78 NW7       29.97R
O`NEILL        CLEAR     61  61  97 NW12G17   29.91F
ORD            CLEAR     59  56  89 NW5       29.93S
THEDFORD       CLEAR     58  54  84 W3        30.02R
$$

NEZ041-046>049-061>064-073>077-083>087-170600-
SOUTH CENTRAL NEBRASKA

CITY           SKY/WX    TMP DP  RH WIND       PRES   REMARKS
GRAND ISLAND   CLEAR     61  61 100 W5        29.94R
AURORA         CLEAR     60  60 100 W5        29.93S
HASTINGS       CLEAR     62  59  90 W7        29.97R
HEBRON         CLEAR     66  64  91 NW3       29.93S
HOLDREGE       CLEAR     60  57  89 NW6       29.97S
KEARNEY        CLEAR     64  59  83 W6        29.97R
YORK           CLEAR     61  61 100 CALM      29.92F
$$

NEZ011>018-030>034-042>045-170600-
NORTHEAST NEBRASKA

CITY           SKY/WX    TMP DP  RH WIND       PRES   REMARKS
NORFOLK        CLOUDY    64  60  87 W10       29.86R
ALBION         CLEAR     64  61  89 NW8       29.89S
BLAIR          RAIN      66  63  90 W8        29.83F
COLUMBUS       CLEAR     63  60  90 W8        29.88S
FREMONT        PTCLDY    65  61  88 W14       29.85F
TEKAMAH        CLEAR     65  61  87 W9        29.81F
WAYNE          CLOUDY    65  63  91 W10       29.83S
$$

NEZ050>053-065>068-078-088>093-170600-
SOUTHEAST NEBRASKA

CITY           SKY/WX    TMP DP  RH WIND       PRES   REMARKS
LINCOLN        CLEAR     67  61  81 W7        29.88F
OMAHA EPPLEY   PTCLDY    69  61  75 W14       29.82F
BEATRICE       CLEAR     65  64  94 NW8       29.90R
FALLS CITY     MOCLDY    72  65  78 NW12      29.84R
NEBRASKA CITY  PTCLDY    68  67  97 NW10      29.86R
PLATTSMOUTH    PTCLDY    66  62  86 W6        29.86R
$$

NEZ044-045-051>053-067-170600-
OMAHA AREA

CITY           SKY/WX    TMP DP  RH WIND       PRES   REMARKS
OMAHA EPPLEY   PTCLDY    69  61  75 W14       29.82F
BLAIR          RAIN      66  63  90 W8        29.83F
FREMONT        PTCLDY    65  61  88 W14       29.85F
MILLARD        CLEAR     69  63  81 W8        29.84S
OFFUTT AFB     CLEAR     68  62  79 W9        29.83F
PLATTSMOUTH    PTCLDY    66  62  86 W6        29.86R
WAHOO          FAIR      65  62  89 W12       29.85F
$$




USA.gov is the U.S. government's official web portal to all federal, state and local government web resources and services.